Погода в Кадакесе

Испания     42°17′19″N   3°16′37″E
темп.,
°C
ветер,
м/с
пор.,
м/с
влажн.,
%
обл.,
%
осадки,
мм/ч
давл.,
гПа
погр.,
м
27 июля, вт
вт2723:00+23зсз576991 0.2 1015163
02:00+22зсз23725 0.4 101564
05:00+22з22733 0.0 101455
08:00+21зюз33725 0.0 1014102
11:00+23ю33674 0.0 1014265
14:00+25юв786913 0.0 1013329
17:00+26ю1114590 0.0 1011404
20:00+25ю710650 0.0 1012267
28 июля, ср
ср2823:00+23ююз45730 0.0 1013106
02:00+23з01764 0.0 101429
05:00+23ссв357696 0.0 1014143
08:00+22с58725 0.0 1015362
11:00+23ссв89710 0.0 1015518
14:00+23ссв67760 0.0 1015432
17:00+23св55740 0.0 1015292
20:00+23всв22720 0.0 1014133
29 июля, чт
чт2923:00+23зюз22750 0.0 101562
02:00+23зсз22715 0.0 101432
05:00+23з11732 0.0 101420
08:00+23зюз12720 0.0 101442
11:00+24юв22680 0.0 1014218
14:00+24вюв67710 0.0 1013291
17:00+24юв810750 0.0 1012294
20:00+24юв56740 0.0 1011122
30 июля, пт
пт3023:00+24ююз22780 0.0 101233
02:00+23с22790 0.0 101229
05:00+23з11770 0.0 101216
08:00+23сз11740 0.0 101235
11:00+24св33740 0.0 1013280
14:00+24всв44720 0.0 1012247
17:00+24вюв44720 0.0 1011212
20:00+24ю33750 0.0 1011108
31 июля, сб
сб3123:00+24вюв12760 0.0 101280
02:00+24ссз69660 0.0 1012191
05:00+23сз58640 0.0 1011179
08:00+23сз34660 0.0 1010112
11:00+24св34640 0.0 1010289
14:00+25св57661 0.0 1009244
17:00+26с1112565 0.0 1008485
20:00+22ссз11136579 0.1 1009483